Home > Time Zones > World Clock > Weather > Sweden > Lund > Past weeks

Flag for Sweden Weather past 2 weeks in Lund, Sweden

Now
64 °F

Sunny.


Feels Like: 64 °F
Forecast: 61 / 82 °F
Wind: 2 mph from Northeast

Location: Malmo / Sturup

Current Time: Jul 23, 2014 at 10:40:01 PM

Latest Report: Jul 23, 2014 at 9:50 PM


Visibility: 10 mi

Pressure: 30.18 "Hg

Humidity: 73%

Dew point: 55 °F

Location of LundLocation

Historic Weather in Lund — Graph

°F

Lund temperature yesterday

Maximum temperature yesterday: 81 °F (at 12:50 PM)
Minimum temperature yesterday: 57 °F (at 4:20 AM)
Average temperature yesterday: 71 °F

Past Weeks' High & Low Weather Summary

 TemperatureHumidityPressure
High81 °F (Jul 10, 2:50 PM)100% (Jul 12, 10:50 PM)30.24 "Hg (Jul 12, 10:50 PM)
Low50 °F (Jul 17, 2:20 AM)36% (Jul 23, 12:20 PM)29.62 "Hg (Jul 13, 10:20 AM)
Average66 °F72%30.00 "Hg
* Reported Jul 8 9:20 PM — Jul 23 9:20 PM, Lund, Weather by CustomWeather, © 2014

Note: Actual official high and low records may vary slightly from our data, if they occured in-between our weather recording intervals... More about our weather records

Advertising

Lund weather history for previous 24 hours

 ConditionsComfort  
Time TempWeatherWind HumidityBarometerVisibility
9:20 PM
Jul 23
68 °FSunny.2 mph69%30.18 "Hg10 mi
8:50 PM73 °FSunny.2 mph53%30.18 "Hg10 mi
8:20 PM73 °FSunny.6 mph50%30.18 "Hg10 mi
7:50 PM75 °FSunny.8 mph44%30.18 "Hg10 mi
7:20 PM75 °FSunny.12 mph44%30.18 "Hg10 mi
6:50 PM77 °FSunny.13 mph42%30.18 "Hg10 mi
6:20 PM77 °FSunny.12 mph42%30.18 "Hg10 mi
5:50 PM77 °FSunny.15 mph42%30.18 "Hg10 mi
5:20 PM77 °FSunny.16 mph42%30.18 "Hg10 mi
4:50 PM77 °FSunny.15 mph44%30.18 "Hg10 mi
4:20 PM77 °FPassing clouds.15 mph44%30.18 "HgN/A
3:50 PM79 °FPassing clouds.14 mph39%30.21 "HgN/A
3:20 PM79 °FSunny.14 mph42%30.21 "Hg10 mi
1:20 PM79 °FPassing clouds.12 mph39%30.21 "HgN/A
12:50 PM77 °FPassing clouds.12 mph39%30.21 "HgN/A
12:20 PM77 °FPassing clouds.15 mph36%30.21 "HgN/A
11:50 AM77 °FSunny.12 mph42%30.24 "Hg10 mi
11:20 AM77 °FSunny.12 mph44%30.24 "Hg10 mi
10:20 AM75 °FSunny.13 mph47%30.24 "Hg10 mi
9:50 AM73 °FSunny.15 mph50%30.24 "Hg10 mi
7:50 AM66 °FSunny.9 mph68%30.24 "Hg10 mi
7:20 AM64 °FSunny.9 mph73%30.24 "Hg10 mi
6:50 AM63 °FSunny.8 mph77%30.24 "Hg10 mi
6:20 AM61 °FSunny.7 mph83%30.24 "Hg10 mi
5:50 AM57 °FClear.7 mph88%30.24 "Hg10 mi
5:20 AM57 °FClear.7 mph94%30.24 "Hg10 mi
4:50 AM57 °FClear.6 mph94%30.24 "Hg10 mi
4:20 AM61 °FClear.7 mph83%30.24 "Hg10 mi
3:50 AM61 °FClear.8 mph83%30.24 "Hg10 mi
3:20 AM63 °FClear.5 mph83%30.24 "Hg10 mi
2:50 AM61 °FClear.5 mph83%30.24 "Hg10 mi
2:20 AM61 °FClear.3 mph83%30.24 "Hg10 mi
1:50 AM61 °FClear.3 mph83%30.24 "Hg10 mi
Weather by CustomWeather, © 2014

See weather overviewHow to use our weather pages